"Pseudo-MPEC" for P11Jpwn

Created 2023 Sep 27 0:22:12 UT using Find_Orb

Click here for an explanation of pseudo-MPECs

 
 Astrometry: 
     P11Jpwn* C2023 09 13iCdHJ#@!7GCKc3(nl+Z#VPf_SQ3PB8?eBjZbkq/h55Qqn4L3d8rqF51
     P11Jpwn  C2023 09 13C`GexA*U=t5Ye`BTPW_AstrometryRN_!QsM8?6redacted;/bv1F51
     P11Jpwn  C2023 09 13MO,1*I,s(KYJY/\?b0$c;RjYj/JSKROJcYsoRUAclickfZus7LRTF51
     P11Jpwn  C2023 09 13B*D!N-%[X0UJtixCu-dag?7)8N0j]hereRN'-forVexplanationF51

Station data:
(F51) Pan-STARRS 1, Haleakala  (N20.707234 W156.255910)  US/Hawaii.
   Observers J. Bulger, T. Lowe, A. Schultz, M. Willman. Measurers K.
   Chambers, S. Chastel, T. de Boer, L. Denneau, J. Fairlamb, H. Flewelling,
   M. Huber, C.-C. Lin, E. Magnier, Y. Ramanjooloo, R. Wainscoat, R. Weryk.
   1.8-m Ritchey-Chrétien + CCD.

Orbital elements:  P11Jpwn
   Perihelion 2024 Jan 1.02234 +/- 83.5 TT =  0:32:10 (JD 2460310.52234)
Epoch 2023 Sep 14.0 TT = JDT 2460201.5   Earth MOID: 0.1044   Ve: 0.0920
M 305.85898797 +/- 48               (J2000 ecliptic)             AutoNEOCP
n   0.49660476 +/- 0.398            Peri.   73.74293 +/- 90
a   1.57929089 +/- 0.844            Node    58.24915 +/- 52
e   0.6140052 +/- 0.263             Incl.   32.83224 +/- 14
P   1.98/724.91d           H 19.05  G  0.15   U 12.1  SR
q 0.60959796 +/- 0.639    Q 2.54898381 +/- 40.8
From 4 observations 2023 Sept. 13 (39.6 min); mean residual 0".05
Residuals in arcseconds: 
230913 F51  .02-  .06-    230913 F51  .03+  .08+    
230913 F51  .01+  .05+    230913 F51  .02-  .07-    

Ephemerides (geocentric):
Date (UTC) HH   RA             Dec           delta  r     elong  mag " sig PA
---- --------  ------------   ------------  ------ ------ -----  --- --------
2023 09 27 00  04 01 54.725   -36 17 27.89  .71293 1.4539 114.8 20.7  43d 114
2023 09 27 01  04 01 56.107   -36 18 24.33  .71239 1.4535 114.8 20.7  43d 114
2023 09 27 02  04 01 57.485   -36 19 20.82  .71185 1.4532 114.9 20.7  43d 114
2023 09 27 03  04 01 58.859   -36 20 17.37  .71131 1.4528 114.9 20.7  43d 114
2023 09 27 04  04 02 00.229   -36 21 13.96  .71077 1.4524 114.9 20.7  43d 114
2023 09 27 05  04 02 01.595   -36 22 10.61  .71022 1.4520 114.9 20.7  43d 114
2023 09 27 06  04 02 02.956   -36 23 07.31  .70968 1.4517 114.9 20.7  43d 114
2023 09 27 07  04 02 04.313   -36 24 04.05  .70914 1.4513 114.9 20.7  43d 114
2023 09 27 08  04 02 05.666   -36 25 00.86  .70860 1.4509 114.9 20.7  43d 114
2023 09 27 09  04 02 07.014   -36 25 57.71  .70806 1.4505 114.9 20.7  43d 114
2023 09 27 10  04 02 08.359   -36 26 54.61  .70752 1.4501 114.9 20.7  43d 114
2023 09 27 11  04 02 09.699   -36 27 51.57  .70698 1.4498 114.9 20.7  43d 114
2023 09 27 12  04 02 11.035   -36 28 48.57  .70644 1.4494 114.9 20.6  43d 114
2023 09 27 13  04 02 12.366   -36 29 45.63  .70590 1.4490 114.9 20.6  43d 114
2023 09 27 14  04 02 13.693   -36 30 42.74  .70536 1.4486 114.9 20.6  43d 114
2023 09 27 15  04 02 15.016   -36 31 39.91  .70482 1.4483 114.9 20.6  43d 114
2023 09 27 16  04 02 16.335   -36 32 37.12  .70428 1.4479 115.0 20.6  43d 114
2023 09 27 17  04 02 17.649   -36 33 34.39  .70374 1.4475 115.0 20.6  43d 114
2023 09 27 18  04 02 18.959   -36 34 31.71  .70320 1.4471 115.0 20.6  43d 114
2023 09 27 19  04 02 20.265   -36 35 29.08  .70266 1.4467 115.0 20.6  43d 114
2023 09 27 20  04 02 21.566   -36 36 26.51  .70212 1.4464 115.0 20.6  43d 114
2023 09 27 21  04 02 22.863   -36 37 23.98  .70158 1.4460 115.0 20.6  43d 114
2023 09 27 22  04 02 24.155   -36 38 21.51  .70104 1.4456 115.0 20.6  43d 114
2023 09 27 23  04 02 25.444   -36 39 19.09  .70050 1.4452 115.0 20.6  43d 114
2023 09 28 00  04 02 26.727   -36 40 16.73  .69996 1.4448 115.0 20.6  43d 114
2023 09 28 01  04 02 28.007   -36 41 14.41  .69942 1.4445 115.0 20.6  43d 114
2023 09 28 02  04 02 29.282   -36 42 12.15  .69888 1.4441 115.0 20.6  43d 114
2023 09 28 03  04 02 30.552   -36 43 09.95  .69834 1.4437 115.0 20.6  43d 114
2023 09 28 04  04 02 31.819   -36 44 07.79  .69780 1.4433 115.0 20.6  43d 114
2023 09 28 05  04 02 33.080   -36 45 05.69  .69726 1.4429 115.0 20.6  43d 114
2023 09 28 06  04 02 34.338   -36 46 03.64  .69673 1.4426 115.0 20.6  44d 114
2023 09 28 07  04 02 35.591   -36 47 01.65  .69619 1.4422 115.1 20.6  44d 114
2023 09 28 08  04 02 36.839   -36 47 59.71  .69565 1.4418 115.1 20.6  44d 114
2023 09 28 09  04 02 38.083   -36 48 57.82  .69511 1.4414 115.1 20.6  44d 114
2023 09 28 10  04 02 39.323   -36 49 55.98  .69457 1.4410 115.1 20.6  44d 114
2023 09 28 11  04 02 40.558   -36 50 54.20  .69403 1.4407 115.1 20.6  44d 114
2023 09 28 12  04 02 41.789   -36 51 52.47  .69349 1.4403 115.1 20.6  44d 114
2023 09 28 13  04 02 43.015   -36 52 50.80  .69296 1.4399 115.1 20.6  44d 114
2023 09 28 14  04 02 44.236   -36 53 49.18  .69242 1.4395 115.1 20.6  44d 114
2023 09 28 15  04 02 45.454   -36 54 47.61  .69188 1.4391 115.1 20.6  44d 114
2023 09 28 16  04 02 46.666   -36 55 46.10  .69134 1.4388 115.1 20.6  44d 114
2023 09 28 17  04 02 47.874   -36 56 44.64  .69080 1.4384 115.1 20.6  44d 114
2023 09 28 18  04 02 49.078   -36 57 43.23  .69027 1.4380 115.1 20.6  44d 114
2023 09 28 19  04 02 50.277   -36 58 41.88  .68973 1.4376 115.1 20.6  44d 114
2023 09 28 20  04 02 51.471   -36 59 40.58  .68919 1.4372 115.1 20.6  44d 114
2023 09 28 21  04 02 52.661   -37 00 39.34  .68865 1.4369 115.1 20.6  44d 114
2023 09 28 22  04 02 53.847   -37 01 38.15  .68811 1.4365 115.1 20.6  44d 114
2023 09 28 23  04 02 55.027   -37 02 37.02  .68758 1.4361 115.2 20.6  44d 114